DLH34C LJLJ-LQSA

Flight info

Callsign DLH34C
Flight time 0h 39m
Altitude 31000
Route LUPIX2E LUPIX DCT GORPA DCT KUSIB DCT BOSNA
Aircraft A346/H-SDE2E3FGHIJ3J4J5M1RWXY/LB1D1

Departure

Time 2026-04-23 08:05
Airport Ljubljana Jože Pučnik Airport (LJLJ)

Arrival

Time 2026-04-23 08:45
Airport Sarajevo International Airport (LQSA)
Time Latitude Longitude Altitude Speed Heading
2026-04-23 07:37 46.23175 14.45124 1272 ft 0 kts 36°
2026-04-23 07:55 46.23170 14.45119 1277 ft 4 kts 34°
2026-04-23 07:55 46.23148 14.45099 1278 ft 4 kts 38°
2026-04-23 07:56 46.23142 14.45088 1279 ft 4 kts 72°
2026-04-23 07:56 46.23140 14.45057 1281 ft 4 kts 103°
2026-04-23 07:56 46.23150 14.45027 1280 ft 4 kts 127°
2026-04-23 07:56 46.23163 14.45003 1278 ft 0 kts 127°
2026-04-23 07:58 46.23162 14.45003 1278 ft 0 kts 127°
2026-04-23 07:58 46.23157 14.45014 1285 ft 6 kts 127°
2026-04-23 07:58 46.23113 14.45099 1276 ft 7 kts 127°
2026-04-23 07:59 46.23076 14.45171 1274 ft 3 kts 128°
2026-04-23 07:59 46.23046 14.45188 1275 ft 7 kts 179°
2026-04-23 07:59 46.22995 14.45146 1279 ft 11 kts 217°
2026-04-23 07:59 46.22949 14.45120 1274 ft 7 kts 167°
2026-04-23 08:00 46.22898 14.45189 1271 ft 13 kts 128°
2026-04-23 08:00 46.22831 14.45314 1269 ft 19 kts 128°
2026-04-23 08:00 46.22745 14.45483 1265 ft 23 kts 125°
2026-04-23 08:00 46.22644 14.45688 1266 ft 27 kts 126°
2026-04-23 08:01 46.22525 14.45914 1252 ft 30 kts 127°
2026-04-23 08:01 46.22414 14.46143 1242 ft 26 kts 124°
2026-04-23 08:01 46.22299 14.46369 1241 ft 29 kts 126°
2026-04-23 08:01 46.22171 14.46618 1233 ft 32 kts 127°
2026-04-23 08:02 46.22033 14.46886 1227 ft 34 kts 126°
2026-04-23 08:02 46.21903 14.47140 1221 ft 29 kts 127°
2026-04-23 08:02 46.21781 14.47378 1215 ft 23 kts 126°
2026-04-23 08:02 46.21694 14.47551 1211 ft 18 kts 126°
2026-04-23 08:03 46.21659 14.47607 1209 ft 5 kts 158°
2026-04-23 08:03 46.21614 14.47593 1209 ft 9 kts 216°
2026-04-23 08:03 46.21550 14.47524 1208 ft 13 kts 216°
2026-04-23 08:03 46.21517 14.47489 1207 ft 1 kts 216°
2026-04-23 08:04 46.21509 14.47471 1208 ft 3 kts 254°
2026-04-23 08:04 46.21512 14.47443 1208 ft 0 kts 296°
2026-04-23 08:04 46.21516 14.47436 1208 ft 2 kts 306°
2026-04-23 08:04 46.21532 14.47405 1209 ft 8 kts 306°
2026-04-23 08:05 46.21689 14.47093 1219 ft 75 kts 306°
2026-04-23 08:05 46.22136 14.46222 1251 ft 138 kts 306°
2026-04-23 08:05 46.22809 14.44891 1308 ft 185 kts 308°
2026-04-23 08:05 46.23565 14.43418 2123 ft 175 kts 307°
2026-04-23 08:06 46.24029 14.41867 2947 ft 171 kts 268°
2026-04-23 08:06 46.23544 14.40317 3452 ft 181 kts 217°
2026-04-23 08:06 46.22327 14.39629 3913 ft 198 kts 191°
2026-04-23 08:06 46.20904 14.39388 4291 ft 214 kts 186°
2026-04-23 08:07 46.19366 14.39190 4758 ft 227 kts 186°
2026-04-23 08:07 46.17764 14.39051 5334 ft 236 kts 174°
2026-04-23 08:07 46.16244 14.40037 5750 ft 251 kts 133°
2026-04-23 08:07 46.15347 14.42249 6202 ft 264 kts 105°
2026-04-23 08:08 46.14838 14.44848 6926 ft 273 kts 101°
2026-04-23 08:08 46.14323 14.47514 7840 ft 277 kts 102°
2026-04-23 08:08 46.13738 14.50173 8894 ft 279 kts 104°
2026-04-23 08:08 46.13092 14.52831 10029 ft 281 kts 104°
2026-04-23 08:09 46.12413 14.55477 10890 ft 291 kts 105°
2026-04-23 08:09 46.11673 14.58297 11477 ft 309 kts 105°
2026-04-23 08:09 46.10878 14.61275 12034 ft 327 kts 106°
2026-04-23 08:09 46.10026 14.64423 12575 ft 346 kts 106°
2026-04-23 08:10 46.09125 14.67735 13208 ft 361 kts 106°
2026-04-23 08:10 46.08195 14.71136 14112 ft 366 kts 106°
2026-04-23 08:10 46.06162 14.77176 15708 ft 377 kts 115°
2026-04-23 08:11 46.04720 14.80376 16558 ft 384 kts 120°
2026-04-23 08:11 46.03182 14.83512 17411 ft 389 kts 120°
2026-04-23 08:11 46.01600 14.86699 18264 ft 394 kts 121°
2026-04-23 08:11 45.99995 14.89925 19031 ft 398 kts 121°
2026-04-23 08:12 45.98373 14.93188 19803 ft 402 kts 121°
2026-04-23 08:12 45.96743 14.96470 20602 ft 404 kts 121°
2026-04-23 08:12 45.95104 14.99767 21394 ft 406 kts 121°
2026-04-23 08:12 45.93451 15.03092 22199 ft 409 kts 121°
2026-04-23 08:13 45.91790 15.06431 22976 ft 412 kts 121°
2026-04-23 08:13 45.90117 15.09792 23760 ft 415 kts 121°
2026-04-23 08:13 45.88432 15.13171 24402 ft 418 kts 121°
2026-04-23 08:13 45.86727 15.16586 25042 ft 421 kts 121°
2026-04-23 08:14 45.85009 15.20024 25664 ft 425 kts 120°
2026-04-23 08:14 45.83300 15.23439 26266 ft 428 kts 121°
2026-04-23 08:14 45.81563 15.26900 27067 ft 426 kts 120°
2026-04-23 08:14 45.79816 15.30375 27989 ft 421 kts 120°
2026-04-23 08:15 45.78099 15.33792 28893 ft 418 kts 120°
2026-04-23 08:15 45.76344 15.37119 29757 ft 417 kts 122°
2026-04-23 08:15 45.74572 15.40357 30514 ft 416 kts 122°
2026-04-23 08:15 45.72781 15.43628 31022 ft 419 kts 122°
2026-04-23 08:16 45.70973 15.46927 31242 ft 422 kts 122°
2026-04-23 08:16 45.69157 15.50231 31242 ft 422 kts 122°
2026-04-23 08:16 45.65649 15.56597 31245 ft 422 kts 122°
2026-04-23 08:17 45.61963 15.63265 31242 ft 422 kts 122°
2026-04-23 08:17 45.58313 15.69855 31235 ft 422 kts 122°
2026-04-23 08:18 45.54662 15.76430 31230 ft 422 kts 122°
2026-04-23 08:18 45.51005 15.83000 31233 ft 422 kts 123°
2026-04-23 08:19 45.47344 15.89562 31229 ft 422 kts 123°
2026-04-23 08:19 45.43713 15.96056 31225 ft 421 kts 123°
2026-04-23 08:20 45.40046 16.02599 31228 ft 421 kts 123°
2026-04-23 08:20 45.36390 16.09107 31227 ft 421 kts 123°
2026-04-23 08:21 45.32727 16.15612 31228 ft 421 kts 123°
2026-04-23 08:21 45.29060 16.22108 31230 ft 420 kts 123°
2026-04-23 08:22 45.25393 16.28589 31223 ft 420 kts 123°
2026-04-23 08:22 45.21724 16.35056 31225 ft 416 kts 123°
2026-04-23 08:23 45.18098 16.41433 31226 ft 419 kts 123°
2026-04-23 08:23 45.14443 16.47848 31226 ft 420 kts 123°
2026-04-23 08:24 45.10656 16.54284 31227 ft 421 kts 124°
2026-04-23 08:24 45.06909 16.60597 31224 ft 420 kts 124°
2026-04-23 08:25 45.05026 16.63768 31086 ft 421 kts 124°
2026-04-23 08:25 45.03138 16.66945 30645 ft 420 kts 124°
2026-04-23 08:25 45.01254 16.70112 30094 ft 421 kts 124°
2026-04-23 08:25 44.99367 16.73281 29475 ft 421 kts 124°
2026-04-23 08:26 44.97487 16.76437 28844 ft 420 kts 124°
2026-04-23 08:26 44.95599 16.79601 28237 ft 420 kts 124°
2026-04-23 08:26 44.93714 16.82759 27615 ft 420 kts 124°
2026-04-23 08:26 44.91822 16.85924 26979 ft 420 kts 124°
2026-04-23 08:27 44.89934 16.89079 26339 ft 421 kts 124°
2026-04-23 08:27 44.88040 16.92241 25707 ft 422 kts 124°
2026-04-23 08:27 44.86147 16.95394 25271 ft 418 kts 124°
2026-04-23 08:27 44.84298 16.98472 24831 ft 415 kts 124°
2026-04-23 08:28 44.82441 17.01559 24400 ft 412 kts 124°
2026-04-23 08:28 44.80593 17.04630 23941 ft 409 kts 124°
2026-04-23 08:28 44.78758 17.07676 23467 ft 406 kts 124°
2026-04-23 08:28 44.76933 17.10703 22995 ft 403 kts 124°
2026-04-23 08:29 44.75126 17.13698 22545 ft 399 kts 124°
2026-04-23 08:29 44.73332 17.16665 22116 ft 395 kts 124°
2026-04-23 08:29 44.71553 17.19606 21685 ft 392 kts 124°
2026-04-23 08:29 44.69791 17.22514 21290 ft 388 kts 124°
2026-04-23 08:30 44.68046 17.25392 20875 ft 385 kts 124°
2026-04-23 08:30 44.66314 17.28249 20457 ft 383 kts 125°
2026-04-23 08:30 44.64588 17.31091 20040 ft 380 kts 125°
2026-04-23 08:30 44.63452 17.32959 19772 ft 379 kts 125°
2026-04-23 08:31 44.61744 17.35767 19364 ft 376 kts 125°
2026-04-23 08:31 44.59494 17.39461 18812 ft 374 kts 126°
2026-04-23 08:31 44.58349 17.41340 18548 ft 373 kts 125°
2026-04-23 08:31 44.56665 17.44097 18085 ft 371 kts 125°
2026-04-23 08:32 44.55007 17.46810 17665 ft 369 kts 126°
2026-04-23 08:32 44.53337 17.49539 17247 ft 367 kts 126°
2026-04-23 08:32 44.51672 17.52261 16850 ft 365 kts 126°
2026-04-23 08:32 44.50019 17.54957 16436 ft 364 kts 126°
2026-04-23 08:33 44.48368 17.57649 16029 ft 363 kts 126°
2026-04-23 08:33 44.46729 17.60319 15611 ft 361 kts 126°
2026-04-23 08:33 44.45090 17.62987 15238 ft 359 kts 126°
2026-04-23 08:33 44.43459 17.65634 14846 ft 358 kts 126°
2026-04-23 08:34 44.41835 17.68269 14452 ft 357 kts 126°
2026-04-23 08:34 44.40215 17.70898 14021 ft 355 kts 126°
2026-04-23 08:34 44.38596 17.73490 13583 ft 353 kts 128°
2026-04-23 08:34 44.36852 17.75891 13249 ft 351 kts 134°
2026-04-23 08:35 44.34947 17.78043 13214 ft 352 kts 140°
2026-04-23 08:35 44.32967 17.79984 13198 ft 352 kts 141°
2026-04-23 08:35 44.30944 17.81920 13203 ft 352 kts 141°
2026-04-23 08:35 44.28922 17.83848 13196 ft 352 kts 141°
2026-04-23 08:36 44.26899 17.85779 13206 ft 352 kts 141°
2026-04-23 08:36 44.24882 17.87706 13203 ft 350 kts 141°
2026-04-23 08:36 44.22915 17.89581 13197 ft 334 kts 141°
2026-04-23 08:36 44.21039 17.91369 13192 ft 317 kts 141°
2026-04-23 08:37 44.19259 17.93067 13198 ft 305 kts 141°
2026-04-23 08:37 44.17509 17.94743 13205 ft 304 kts 140°
2026-04-23 08:37 44.15764 17.96416 13200 ft 304 kts 141°
2026-04-23 08:37 44.14008 17.98094 13199 ft 303 kts 141°
2026-04-23 08:38 44.12306 17.99813 13205 ft 301 kts 137°
2026-04-23 08:38 44.10683 18.01632 13010 ft 295 kts 136°
2026-04-23 08:38 44.09077 18.03462 12525 ft 295 kts 136°
2026-04-23 08:38 44.07488 18.05273 12034 ft 296 kts 136°
2026-04-23 08:39 44.05873 18.07113 11213 ft 302 kts 136°
2026-04-23 08:39 44.04234 18.08943 10446 ft 303 kts 142°
2026-04-23 08:39 44.02304 18.10036 9635 ft 311 kts 173°
2026-04-23 08:39 44.00166 18.09615 8798 ft 312 kts 205°
2026-04-23 08:40 43.98354 18.07992 8037 ft 310 kts 218°
2026-04-23 08:40 43.96623 18.06215 7262 ft 309 kts 216°
2026-04-23 08:40 43.94789 18.04739 6545 ft 296 kts 197°
2026-04-23 08:40 43.92819 18.04644 5892 ft 276 kts 160°
2026-04-23 08:41 43.91280 18.05993 5267 ft 256 kts 122°
2026-04-23 08:41 43.90632 18.08139 4846 ft 229 kts 98°
2026-04-23 08:41 43.90366 18.10331 4787 ft 232 kts 96°
2026-04-23 08:41 43.89985 18.12524 4715 ft 235 kts 105°
2026-04-23 08:42 43.89367 18.14639 4565 ft 237 kts 111°
2026-04-23 08:42 43.88650 18.16668 4338 ft 229 kts 113°
2026-04-23 08:42 43.87931 18.18553 4021 ft 211 kts 115°
2026-04-23 08:42 43.87281 18.20248 3914 ft 192 kts 114°
2026-04-23 08:43 43.86682 18.21858 3549 ft 183 kts 114°
2026-04-23 08:43 43.86113 18.23401 3166 ft 175 kts 114°
2026-04-23 08:43 43.85570 18.24847 2854 ft 165 kts 115°
2026-04-23 08:43 43.85047 18.26200 2684 ft 156 kts 114°
2026-04-23 08:44 43.84548 18.27524 2419 ft 153 kts 114°
2026-04-23 08:44 43.84063 18.28835 2184 ft 153 kts 114°
2026-04-23 08:44 43.83567 18.30154 1942 ft 154 kts 113°
2026-04-23 08:44 43.83084 18.31469 1770 ft 152 kts 113°
2026-04-23 08:45 43.82614 18.32736 1699 ft 130 kts 117°
2026-04-23 08:45 43.82301 18.33572 1713 ft 66 kts 117°
2026-04-23 08:45 43.82113 18.34071 1719 ft 44 kts 118°
2026-04-23 08:45 43.81992 18.34387 1722 ft 25 kts 117°
2026-04-23 08:46 43.81944 18.34540 1724 ft 9 kts 90°
2026-04-23 08:46 43.81989 18.34616 1724 ft 12 kts 24°
2026-04-23 08:46 43.82083 18.34597 1723 ft 16 kts 321°
2026-04-23 08:46 43.82151 18.34444 1721 ft 21 kts 297°
2026-04-23 08:47 43.82222 18.34251 1720 ft 24 kts 297°
2026-04-23 08:47 43.82300 18.34045 1718 ft 17 kts 298°
2026-04-23 08:47 43.82364 18.33882 1716 ft 16 kts 298°
2026-04-23 08:47 43.82397 18.33794 1715 ft 4 kts 296°
2026-04-23 08:48 43.82415 18.33743 1715 ft 8 kts 296°
2026-04-23 08:48 43.82445 18.33659 1713 ft 12 kts 297°
2026-04-23 08:48 43.82490 18.33539 1712 ft 15 kts 297°
2026-04-23 08:48 43.82508 18.33493 1711 ft 2 kts 302°
2026-04-23 08:49 43.82523 18.33482 1711 ft 3 kts 353°
2026-04-23 08:49 43.82543 18.33493 1711 ft 4 kts 25°
2026-04-23 08:49 43.82566 18.33509 1711 ft 4 kts 26°
2026-04-23 08:49 43.82570 18.33512 1711 ft 0 kts 26°
2026-04-23 08:50 43.82572 18.33513 1711 ft 0 kts 26°